#timestamp,LO_Frequency,Hit,StdDev 
1577106015.3,286047002.0,N
1577106035.2,286047004.3,N
1577106055.9,286047004.3,N
1577106075.7,286047003.6,N
1577106095.6,286047003.0,N
1577106115.4,286047003.4,N
1577106135.3,286047001.5,N
1577106155.1,286047000.3,N
1577106156.0,286047000.3,N
1577106175.8,286046998.6,N
1577106195.7,286046999.3,N
1577106215.5,286046997.5,N
1577106235.3,286046997.0,N
1577106255.2,286047001.2,N
1577106275.0,286046998.6,N
1577106275.9,286046998.6,N
1577106295.8,286046998.9,N
1577106315.6,286046997.7,N
1577106335.4,286046996.9,N
1577106355.3,286046996.7,N
1577106375.1,286046998.1,N
1577106395.9,286047000.4,N
1577106415.7,286047000.7,N
1577106435.5,286047000.3,N
1577106455.4,286047002.2,N
1577106475.2,286047004.0,N
1577106495.0,286047002.2,N
1577106495.9,286047002.2,N
1577106515.8,286047002.3,N
1577106535.6,286047002.7,N
1577106555.5,286047000.5,N
1577106575.3,286047001.0,N
1577106595.1,286047001.1,N
1577106615.9,286046997.3,N
1577106635.7,286046995.3,N
1577106655.5,286046997.6,N
1577106675.4,286046997.7,N
1577106695.2,286046998.2,N
1577106715.1,286046999.8,N
1577106716.0,286046999.8,N
1577106735.8,286047000.5,N
1577106755.6,286046999.7,N
1577106775.5,286046999.7,N
1577106795.3,286047002.6,N
1577106815.1,286046999.9,N
1577106835.9,286046998.4,N
1577106855.7,286046999.6,N
1577106875.6,286046998.4,N
1577106895.4,286046998.1,N
1577106915.2,286047001.0,N
1577106935.1,286046998.5,N
1577106936.0,286046998.5,N
1577106985.9,286046999.2,E
1577106995.8,286046997.4,N
1577107015.6,286046997.0,P
1577107035.4,286046996.7,P
1577107055.3,286046997.6,Y
1577107075.1,286046998.7,P
1577107095.9,286047001.1,N
1577107115.7,286047001.0,N
1577107135.5,286047000.5,N
1577107155.4,286046998.5,N
1577107175.2,286047000.8,N
1577107195.0,286046998.9,N
1577107196.0,286046998.9,N
1577107215.8,286046996.9,N
1577107235.6,286046997.5,N
1577107255.5,286046999.3,N
1577107275.3,286046996.5,N
1577107295.1,286046996.9,N
1577107315.9,286046998.7,N
1577107335.7,286046998.2,N
1577107355.6,286046998.6,N
1577107375.4,286046998.7,N
1577107395.2,286046998.2,N
1577107415.1,286046999.5,N
1577107416.0,286046999.5,N
1577107435.8,286046998.9,N
1577107455.6,286046998.3,N
1577107475.5,286046998.6,N
1577107495.3,286046999.2,N
1577107515.2,286046996.5,N
1577107535.9,286046997.1,N
1577107555.7,286046994.9,Y
1577107575.6,286046999.5,P
1577107595.4,286046997.7,P
1577107615.2,286046996.7,P
1577107635.1,286046999.9,N
1577107636.0,286046999.9,N
1577107655.8,286047001.9,N
1577107675.7,286047002.7,N
1577107695.5,286047000.1,N
1577107715.3,286046999.8,N
1577107735.2,286047002.7,N
1577107755.0,286046999.8,N
1577107755.9,286046999.8,N
1577107775.8,286047004.2,N
1577107795.6,286047002.7,N
1577107815.4,286047003.0,N
1577107835.3,286047001.4,N
1577107855.1,286046999.7,N
1577107875.8,286047002.2,N
1577107895.7,286047000.9,N
1577107915.5,286047000.3,N
1577107935.4,286047002.0,N
1577107955.2,286047001.6,N
1577107975.0,286047003.5,N
1577107975.9,286047003.5,N
1577107995.8,286047003.1,N
1577108015.6,286047004.0,N
1577108035.4,286047001.5,N
1577108055.3,286047002.4,N
1577108075.1,286047000.1,N
1577108095.9,286047004.1,N
1577108115.7,286047004.6,N
1577108135.5,286047006.2,Y
1577108155.4,286047005.9,P
1577108175.2,286047004.2,N
1577108195.1,286047003.2,N
1577108196.0,286047003.2,N
1577108215.8,286047002.9,N
1577108235.6,286047001.5,N
1577108255.5,286047001.4,N
1577108275.3,286047002.0,N
1577108295.1,286047004.2,N
1577108315.9,286047003.2,N
1577108335.7,286047007.5,Y
1577108355.6,286047004.0,P
1577108375.4,286047001.3,N
1577108395.2,286047005.7,P
1577108415.1,286047003.8,N
1577108416.0,286047003.8,N
1577108435.8,286047005.6,Y
1577108455.6,286046999.8,P
1577108475.5,286047000.6,N
1577108495.3,286046999.6,N
1577108515.2,286046997.1,N
1577108535.9,286046997.8,N
1577108555.7,286046997.6,N
1577108575.6,286046997.0,N
1577108595.4,286046997.1,N
1577108615.3,286046996.8,N
1577108635.1,286046997.4,N
1577108636.0,286046997.4,N
1577108655.8,286046995.5,N
1577108675.7,286046996.3,N
1577108695.5,286046995.7,N
1577108715.3,286046997.1,N
1577108735.2,286046996.6,N
1577108755.0,286046999.5,N
1577108755.9,286046999.5,N
1577108775.8,286046999.0,N
1577108795.6,286046997.0,N
1577108815.4,286046997.7,N
1577108835.3,286046997.3,N
1577108855.1,286046996.9,N
1577108875.8,286046998.9,N
1577108895.7,286046998.3,N
1577108915.5,286046999.1,N
1577108935.4,286046998.3,N
1577108955.2,286046997.2,N
1577108975.0,286046997.7,N
1577108975.9,286046997.7,N
1577108995.8,286046996.3,Y
1577109015.6,286046995.6,P
1577109035.5,286046996.2,P
1577109055.3,286046994.9,P
1577109075.1,286046995.2,Y
1577109095.9,286046998.5,P
1577109115.7,286047000.4,N
1577109135.5,286047000.4,N
1577109155.4,286047001.5,N
1577109175.2,286047001.6,N
1577109195.1,286047011.9,Y
1577109196.0,286047000.3,P
1577109215.8,286047000.6,N
1577109235.6,286046999.9,N
1577109255.5,286047001.0,N
1577109275.3,286047004.2,Y
1577109295.2,286047003.0,P
1577109315.9,286047004.1,P
1577109335.7,286047003.5,N
1577109355.6,286047004.2,N
1577109375.4,286047001.9,N
1577109395.2,286047000.7,N
1577109415.1,286047001.2,N
1577109416.0,286047001.2,N
1577109435.8,286047000.7,N
1577109455.7,286046998.5,N
1577109475.5,286047001.2,N
1577109495.3,286047001.1,N
1577109515.2,286046999.4,N
1577109535.0,286046998.8,N
1577109535.9,286046998.8,N
1577109555.7,286047001.1,N
1577109575.6,286047001.7,N
1577109595.4,286047004.2,N
